Regional Weather Roundup
Issued by NWS

Home | Current Version | Previous Version | Text Only | Print | Product List | Glossary On
Versions: 1 2 3 4 5 6 7 8 9 10 11 12 13 14 15 16 17 18 19 20 21 22 23 24 25 26 27 28 29 30 31 32 33 34 35 36 37 38 39 40 41 42 43 44 45 46 47 48 49 50
000
ASUS44 KMEG 010310
RWRTN
TENNESSEE HOURLY STATE WEATHER ROUNDUP
NATIONAL WEATHER SERVICE MEMPHIS TN
1000 PM CDT FRI JUL 31 2015

TNZ002-004-019-021-049-052-054-088>092-010400-
WEST TENNESSEE

CITY           SKY/WX    TMP DP  RH WIND       PRES   REMARKS
MEMPHIS INTL   CLEAR     84  63  49 NE6       30.06R
NWS MEMPHIS      N/A     78 N/A N/A MISG        N/A
JACKSON        FAIR      73  67  81 CALM      30.05R
DYERSBURG        N/A    N/A N/A N/A MISG        N/A
PARIS          CLEAR     68  66  94 CALM      30.06R
LEXINGTON      CLEAR     70  68  94 CALM      30.05R
$$

TNZ008-025-027-028-033-062-065-066-010400-
NORTH MIDDLE TENNESSEE

CITY           SKY/WX    TMP DP  RH WIND       PRES   REMARKS
NASHVILLE      PTCLDY    79  61  53 N3        30.05R
CLARKSVILLE    CLEAR     73  68  84 CALM      30.04R
SMYRNA         CLEAR     72  66  81 CALM      30.05R
CROSSVILLE     CLEAR     71  59  65 N3        30.10R
$$

TNZ061-075-076-078-094-096-097-010400-
SOUTH MIDDLE TENNESSEE

CITY           SKY/WX    TMP DP  RH WIND       PRES   REMARKS
FAYETTEVILLE   CLEAR     70  57  64 CALM      30.05R
TULLAHOMA      CLEAR     66  61  82 CALM      30.06S
WINCHESTER     CLEAR     64  61  88 CALM      30.05R
MCMINNVILLE    CLEAR     68  66  94 CALM      30.06R
COLUMBIA       CLEAR     72  64  78 CALM      30.04R
SHELBYVILLE    CLEAR     72  64  78 CALM      30.05S
$$

TNZ017-018-042-046-047-010400-
NORTHEAST TENNESSEE

CITY           SKY/WX    TMP DP  RH WIND       PRES   REMARKS
TRI CITIES     CLEAR     66  60  81 CALM      30.06R
ELIZABETHTON   CLEAR     63  57  82 CALM      30.08R
$$

TNZ012-013-036-069-073-074-010400-
CENTRAL EAST TENNESSEE

CITY           SKY/WX    TMP DP  RH WIND       PRES   REMARKS
KNOXVILLE      CLEAR     74  61  63 NE3       30.03R
OAK RIDGE      CLEAR     73  63  70 CALM      30.06R
GATLINBURG     CLEAR     70  61  73 CALM      30.04R
MORRISTOWN     CLEAR     68  63  83 CALM      30.07R
$$

TNZ083-085-099-010400-
SOUTHEAST TENNESSEE

CITY           SKY/WX    TMP DP  RH WIND       PRES   REMARKS
CHATTANOOGA    PTCLDY    76  61  59 N7        30.01R
$$

SKY/WX REPORTED AS FAIR MEANS FEW OR NO CLOUDS BELOW
12 THOUSAND FEET.




USA.gov is the U.S. government's official web portal to all federal, state and local government web resources and services.